Location: Krakow
(50.0830°N, 19.9170°E)
Time: 18:33:35
(UTC+01:00)

SR - Pass Details

Date: 08 February 2023
Orbit: 582 x 867 km, 66.7° (Epoch: 20 March)

Event Time Altitude Azimuth Distance (km) Brightness Sun altitude
Rises 21:44:40 0° 319° (NW) 2,857 ? -46.1°
Enters shadow 21:45:06 - 319° (NW) 2,679 ? -46.1°
Reaches altitude 10° 21:46:59 10° 314° (NW) 1,929 - -46.3°
Maximum altitude 21:51:07 48° 241° (WSW) 768 - -46.8°
Drops below altitude 10° 21:55:11 10° 166° (SSE) 1,902 - -47.3°
Sets 21:57:28 0° 161° (SSE) 2,811 - -47.5°
